Preview of NWS' New Version of Forecast
This preview is not operational and should not be used for support decisions.
Latest weather observations around

Bishop, Bishop Airport (KBIH)

Using English Units (Switch to International System of Units)
Date/ Time (PDT) Wind (mph) Vis. (mi) Weather Sky Cond. Temp (°F) Rel. Humidity Wind Chill (°F) Heat Index (°F) Pressure Precip. (in)
Air Dwpt 6 hour Altimeter (inHg) Sea level (inHg) 1 hr 3 hr 6 hr
Max Min
Sep 16 18:56 W 14 10 Clear CLR 75 13     9%   73 29.77 29.66      
Sep 16 17:56 WSW 13 10 Clear CLR 81 10     7%   79 29.75 29.62      
Sep 16 16:56 NNW 3 10 Clear CLR 79 15     9%   77   29.62      
Sep 16 15:56 WSW 14 10 Clear CLR 80 15     9%   78   29.65      
Sep 16 15:23 S 14 10 Clear CLR 80 15     9%   78          
Sep 16 14:56 W 14 10 Clear CLR 80 17     9%   78   29.68      
Sep 16 13:56 W 18 10 Clear CLR 84 21     10%   81   29.69      
Sep 16 12:56 SW 15 10 Clear CLR 82 24     12%   80   29.72      
Sep 16 11:56 WSW 9 10 Clear CLR 80 25     13%   78   29.71      
Sep 16 10:56 WSW 18 10 Mostly Clear FEW110 78 24     13%   76   29.72      
Sep 16 09:56 ESE 5 10 Clear CLR 68 29     23%     29.88 29.74      
Sep 16 08:56 N 8 10 Clear CLR 57 30     36%     29.89 29.77      
Notice The following observation data may not be complete
Sep 16 07:56 NNE 3 10 Clear CLR   29      %     29.88 29.78      
Notice The following observation data may not be complete
Sep 16 06:56 5 10 Clear CLR   27      %     29.89 29.76      
Notice The following observation data may not be complete
Sep 16 05:56 W 7 10 Clear CLR   29      %     29.88 29.75      
Notice The following observation data may not be complete
Sep 16 04:56 Calm 10 Clear CLR   30      %     29.88 29.74      
Notice The following observation data may not be complete
Sep 16 03:56 ENE 7 10 Clear CLR   32      %     29.88 29.74      
Notice The following observation data may not be complete
Sep 16 02:56 N 6 10 Clear CLR   30      %     29.89 29.75      
Notice The following observation data may not be complete
Sep 16 01:56 W 9 10 Clear CLR   34      %     29.9 29.75      
Notice The following observation data may not be complete
Sep 16 00:56 Calm 10 Clear CLR   33      %     29.9 29.75      
Sep 15 23:56 Calm 10 Clear CLR 67 34     29%     29.89 29.73      
Sep 15 22:56 N 9 10 Clear CLR 71 34     26%   69   29.73      
Sep 15 21:56 N 13 10 Clear CLR 71 35     27%   69   29.73      
Sep 15 20:56 N 13 10 Clear CLR 73 34     24%   71   29.73      
Sep 15 19:56 NE 6 10 Clear CLR 70 30     23%     29.85 29.74      
Sep 15 18:56 Calm 10 Clear CLR 83 22     10%   80 29.83 29.71      
Sep 15 17:56 S 10 10 Clear CLR 89 21     8%   84 29.83 29.69      
Sep 15 16:56 SSE 17 10 Clear CLR 91 20     7%   86 29.83 29.7      
Sep 15 15:56 SSE 13 10 Clear CLR 92 21     8%   86 29.85 29.71      
Sep 15 14:56 SSE 14 10 Clear CLR 90 21     8%   85 29.88 29.74      
Sep 15 13:56 SSE 13 10 Clear CLR 88 21     9%   83 29.92 29.78      
Sep 15 12:56 SE 15 10 Clear CLR 87 26     11%   83 29.95 29.82      
Sep 15 11:56 S 7 10 Clear CLR 86 27     12%   82   29.84      
Sep 15 10:56 Calm 10 Clear CLR 81 28     14%   79 30.01 29.86      
Sep 15 09:56 N 3 10 Clear CLR 75 31     20%   73 30.03 29.89      
Sep 15 08:56 N 5 10 Clear CLR 68 31     25%     30.03 29.9      
Sep 15 07:56 NW 3 10 Clear CLR 58 29     33%     30.03 29.91      
Notice The following observation data may not be complete
Sep 15 06:56 N 7 10 Clear CLR   30      %     30.02 29.9      
Notice The following observation data may not be complete
Sep 15 05:56 N 9 10 Clear CLR   28      %     30.02 29.88      
Notice The following observation data may not be complete
Sep 15 04:56 N 6 10 Clear CLR   31      %     30.02 29.88      
Sep 15 03:56 NNW 8 10 Clear CLR 51 30     44%     30.02 29.88      
Sep 15 02:56 NW 6 10 Clear CLR 54 29     38%       29.88      
Notice The following observation data may not be complete
Sep 15 01:56 NW 7 10 Clear CLR   30      %     30.04 29.9      
Notice The following observation data may not be complete
Sep 15 00:56 NNW 6 10 Clear CLR   31      %     30.04 29.9      
Notice The following observation data may not be complete
Sep 14 23:56 NNW 7 10 Clear CLR   32      %     30.04 29.9      
Notice The following observation data may not be complete
Sep 14 22:56 SSW 6 10 Clear CLR   26      %     30.03 29.88      
Notice The following observation data may not be complete
Sep 14 21:56 W 5 10 Clear CLR   29      %     30.03 29.88      
Sep 14 20:56 SSE 9 10 Clear CLR 75 25     15%   73   29.87      
Sep 14 19:56 S 6 10 Clear CLR 75 25     15%   73   29.87      
Sep 14 18:56 SSE 10 10 Clear CLR 84 26     12%   81 29.99 29.87      
Sep 14 17:56 SSE 14 10 Clear CLR 91 24     9%   86 29.98 29.85      
Sep 14 16:56 S 10 10 Clear CLR 94 22     7%   88 30 29.86      
Sep 14 15:56 S 11 10 Clear CLR 94 20     7%   88 30.01 29.87      
Sep 14 14:56 S 10 10 Clear CLR 94 19     7%   88 30.03 29.88      
Sep 14 13:56 S 14 10 Clear CLR 93 22     8%   87 30.06 29.92      
Sep 14 12:56 SE 9 10 Clear CLR 91 26     10%   86 30.1 29.96      
Sep 14 11:56 Calm 10 Clear CLR 86 26     11%   82 30.13 30      
Sep 14 10:56 NNW 3 10 Clear CLR 84 29     14%   81 30.15 30.02      
Sep 14 09:56 NNE 5 10 Clear CLR 79 29     16%   77 30.17 30.04      
Sep 14 08:56 NW 3 10 Clear CLR 68 30     24%     30.18 30.06      
Sep 14 07:56 NW 5 10 Clear CLR 60 29     31%     30.18 30.05      
Notice The following observation data may not be complete
Sep 14 06:56 NW 6 10 Clear CLR   28      %     30.17 30.06      
Notice The following observation data may not be complete
Sep 14 05:56 WNW 5 10 Clear CLR   28      %     30.16 30.03      
Notice The following observation data may not be complete
Sep 14 04:56 N 6 10 Clear CLR   27      %     30.15 30.02      
Notice The following observation data may not be complete
Sep 14 03:56 NW 5 10 Clear CLR   28      %     30.15 30.01      
Sep 14 02:56 NW 8 10 Clear CLR 55 27     34%     30.15 30.01      
Sep 14 01:56 WNW 7 10 Clear CLR 56 28     34%     30.16 30.02      
Notice The following observation data may not be complete
Sep 14 00:56 NNW 7 10 Clear CLR   28      %     30.16 30.02      
Notice The following observation data may not be complete
Sep 13 23:56 N 9 10 Clear CLR   32      %     30.14 30.01      
Notice The following observation data may not be complete
Sep 13 22:56 NNW 5 10 Clear CLR   33      %       30      
Notice The following observation data may not be complete
Sep 13 21:56 NW 5 10 Clear CLR   29      %     30.12 29.99      
Sep 13 20:56 SSW 6 10 Clear CLR 71 28     20%   69   29.98      
Sep 13 19:56 SSE 11 10 Clear CLR 80 25     13%   78 30.08 29.94      
Sep 13 18:56 SSE 11 10 Clear   83 26     12%   80 30.06 29.94      
May 15 06:56 NNE 3 10 Clear CLR 49 40     71% 48   30 29.92      
May 15 04:56 NNW 6 10 Clear CLR 44 39     82% 41   29.98 29.9      
May 14 14:56 S 17 10 Mostly Cloudy FEW046 SCT090 BKN120 69 37     31%       29.84 0    
May 14 10:56 Calm 10 Partly Cloudy SCT080 70 34     26%       29.87      
May 13 09:56 N 13 10 Clear CLR 66 35     32%     29.96 29.86      
May 13 05:56 NNW 6 10 Mostly Cloudy BKN095 47 38     71% 44     29.88      
May 12 16:56 NNW 22 10 Cloudy and Windy OVC090 62 36     38%     29.85 29.78      
May 11 21:56 NE 8 10 Mostly Cloudy BKN100 52 29     41%       29.76      
May 11 17:56   10 Mostly Clear FEW120 60 26     27%     29.74 29.65      
May 11 11:56 N 26 10 Clear and Breezy CLR 79 20     11%   77   29.49      
Jun 12 00:56   10 Clear CLR 47 20     34%     29.84 29.73      
Jun 11 19:56   10 Clear CLR 56 8     14%     29.77 29.67      
Jun 11 18:56   10 Clear CLR 59 7     12%     29.78 29.69      
Jun 11 13:56   10 Clear CLR 75 13     9%   73 29.65 29.54      
Notice The following observation data may not be complete
Jun 11 06:56 3 10 Clear CLR   32      %     29.69 29.55      
Notice The following observation data may not be complete
Jun 11 05:56 NNE 5 10 Clear CLR   28      %       29.56      
Jun 10 23:56 W 7 10 Clear   62 28     27%       29.56      
Jun 10 19:56   10 Clear CLR 74 23     15%   72 29.68 29.54      
Jun 10 16:56 W 11 10 Clear CLR 88        %     29.65 29.51      
Jun 10 08:56 3 10 Clear CLR 70 31     23%       29.63      
Jun 10 04:56 WNW 6 10 Clear CLR 51 32     48%     29.75 29.61      
Jun 10 02:56 NNW 6 10 Clear CLR 55 32     41%     29.77 29.63      
Jun 09 22:56 N 9 10 Clear CLR 67 31     26%     29.78 29.64      
Jun 09 15:56   10 Clear CLR 91 25     9%   86 29.68 29.53      
Jun 09 10:56 SSE 6 10 Clear CLR 79 34     20%   77 29.82 29.68      
Jun 09 09:56 NW 5 10 Clear CLR 77 37     24%   76 29.84 29.7      
Jun 09 00:56 N 14 10 Clear   62 36     38%     29.88 29.73      
Notice The following observation data may not be complete
Jun 08 08:56   10 Clear CLR          %              
Jun 07 14:56 SSE 21 10 Clear and Windy CLR 96        %     29.85 29.7      
Jun 06 10:56 N 5 10 Clear CLR 87 34     15%   84   29.82      
Jun 05 21:56 N 5 10 Clear CLR 75 33     22%   73   29.76      
Jun 05 18:56 S 10 10 Clear CLR 90 30     12%   86   29.71      
Jun 05 17:56 SSW 7 10 Clear CLR 92 27     10%   87   29.71      
Jun 05 12:56 WNW 6 10 Clear CLR 88 31     13%   84   29.78